TimePST,TemperatureF,Dew PointF,Humidity,Sea Level PressureIn,VisibilityMPH,Wind Direction,Wind SpeedMPH,Gust SpeedMPH,PrecipitationIn,Events,Conditions,WindDirDegrees,DateUTC
12:56 AM,44.1,34.0,68,29.97,10.0,ESE,5.8,-,N/A,,Clear,110,2012-12-12 08:56:00
1:56 AM,41.0,30.0,65,29.97,-9999.0,Calm,Calm,-,N/A,,Clear,0,2012-12-12 09:56:00
2:56 AM,45.0,33.1,63,29.95,10.0,SE,6.9,-,N/A,,Clear,130,2012-12-12 10:56:00
3:56 AM,43.0,30.9,62,29.94,10.0,Calm,Calm,-,N/A,,Clear,0,2012-12-12 11:56:00
4:56 AM,43.0,32.0,65,29.94,10.0,Calm,Calm,-,N/A,,Clear,0,2012-12-12 12:56:00
5:56 AM,39.9,28.9,65,29.96,10.0,NNE,3.5,-,N/A,,Clear,30,2012-12-12 13:56:00
6:56 AM,39.9,28.9,65,29.97,10.0,Calm,Calm,-,N/A,,Mostly Cloudy,0,2012-12-12 14:56:00
7:56 AM,48.9,32.0,52,29.98,10.0,Calm,Calm,-,N/A,,Mostly Cloudy,0,2012-12-12 15:56:00
8:56 AM,55.9,35.1,45,29.99,10.0,Calm,Calm,-,N/A,,Mostly Cloudy,0,2012-12-12 16:56:00
9:56 AM,61.0,37.0,41,29.99,10.0,East,3.5,-,N/A,,Scattered Clouds,100,2012-12-12 17:56:00
10:56 AM,64.0,39.0,40,29.97,10.0,ESE,3.5,-,N/A,,Scattered Clouds,120,2012-12-12 18:56:00
11:56 AM,68.0,43.0,40,29.93,10.0,Calm,Calm,-,N/A,,Scattered Clouds,0,2012-12-12 19:56:00
12:56 PM,70.0,42.1,36,29.90,10.0,SSE,6.9,-,N/A,,Scattered Clouds,150,2012-12-12 20:56:00
1:56 PM,72.0,46.0,40,29.87,10.0,SE,9.2,-,N/A,,Partly Cloudy,130,2012-12-12 21:56:00
2:56 PM,73.0,46.0,38,29.85,10.0,SE,12.7,-,N/A,,Partly Cloudy,140,2012-12-12 22:56:00
3:56 PM,71.1,42.1,35,29.85,10.0,SW,4.6,-,N/A,,Partly Cloudy,220,2012-12-12 23:56:00
4:56 PM,66.9,43.0,42,29.85,10.0,Calm,Calm,-,N/A,,Partly Cloudy,0,2012-12-13 00:56:00
5:56 PM,59.0,43.0,55,29.86,10.0,Calm,Calm,-,N/A,,Clear,0,2012-12-13 01:56:00
6:56 PM,63.0,36.0,37,29.87,10.0,Calm,Calm,-,N/A,,Clear,0,2012-12-13 02:56:00
7:56 PM,61.0,36.0,39,29.87,10.0,NNW,5.8,-,N/A,,Partly Cloudy,340,2012-12-13 03:56:00
8:56 PM,59.0,39.9,49,29.88,10.0,West,8.1,-,N/A,,Partly Cloudy,270,2012-12-13 04:56:00
9:56 PM,61.0,42.1,50,29.88,10.0,West,15.0,20.7,N/A,,Partly Cloudy,270,2012-12-13 05:56:00
10:56 PM,61.0,42.1,50,29.88,10.0,WSW,12.7,-,N/A,,Clear,250,2012-12-13 06:56:00
11:56 PM,59.0,41.0,51,29.87,10.0,West,10.4,-,N/A,,Clear,260,2012-12-13 07:56:00